Location: Carnières
(50.1682°N, 3.3474°E)
Time: 03:54:39
(UTC+00:00)

Meteor 1-28 Rocket - Pass Details

Date: 23 May 2024
Orbit: 474 x 489 km, 97.5° (Epoch: 21 June)

Event Time Altitude Azimuth Distance (km) Brightness Sun altitude
Exits shadow 02:00:49 - 155° (SSE) 1,970 5.8 -12.9°
Reaches altitude 10° 02:01:33 10° 154° (SSE) 1,658 5.5 -12.9°
Maximum altitude 02:05:04 62° 74° (ENE) 545 3.5 -12.6°
Drops below altitude 10° 02:08:36 10° 353° (N) 1,664 6.5 -12.3°
Sets 02:10:41 0° 350° (N) 2,546 7.4 -12.1°
